Regional Weather Roundup
Issued by NWS Wilmington, NC

Home | Current Version | Previous Version | Text Only | Print | Product List | Glossary On
Versions: 1 2 3 4 5 6 7 8 9 10 11 12 13 14 15 16 17 18 19 20 21 22 23 24 25 26 27 28 29 30 31 32 33 34 35 36 37 38 39 40 41 42 43 44 45 46 47 48 49 50
000
ASUS42 KILM 241312
RWRILM
RWRILM
REGIONAL HOURLY WEATHER ROUNDUP
NATIONAL WEATHER SERVICE WILMINGTON NC
900 AM EDT FRI MAR 24 2017

NOTE: "FAIR" INDICATES FEW OR NO CLOUDS BELOW 12,000 FEET WITH NO
SIGNIFICANT WEATHER AND/OR OBSTRUCTIONS TO VISIBILITY.

...............WFO WILMINGTON COUNTY WARNING AREA...............

......COASTAL NC AND SC COUNTIES......

CITY           SKY/WX    TMP DP  RH WIND       PRES   REMARKS
WILMINGTON     SUNNY     45  39  79 NE6       30.53F
N MYRTLE BEACH SUNNY     47  43  86 NE5       30.52S
MYRTLE BEACH   SUNNY     48  45  87 NE7       30.53R

......INLAND NC AND SC COUNTIES.......

CITY           SKY/WX    TMP DP  RH WIND       PRES   REMARKS
LUMBERTON      SUNNY     44  38  79 E6        30.52S
ELIZABETHTOWN  SUNNY     44  37  76 E3        30.52F
WHITEVILLE     SUNNY     44  36  73 E5        30.52S
FLORENCE       SUNNY     46  42  86 VRB5      30.51F
DARLINGTON     PTSUNNY   45  39  79 VRB3      30.52F
KINGSTREE      FAIR      46  41  81 E3        30.51S
HARTSVILLE     CLOUDY    45  37  76 E6        30.51S
BENNETTSVILLE  FAIR      46  41  81 E3        30.52S
CONWAY         FAIR      46  43  87 CALM      30.52S FOG
GEORGETOWN     FAIR      54  52  94 E5        30.51S
MARION         FAIR      45  39  81 E6        30.52F

....................REST OF NORTH CAROLINA......................

.........EASTERN NC.........

CITY           SKY/WX    TMP DP  RH WIND       PRES   REMARKS
CAPE HATTERAS  SUNNY     57  43  59 SE5       30.54S
JACKSONVILLE   SUNNY     45  37  73 NE5       30.54S
MOREHEAD CITY  SUNNY     52  45  77 E7        30.53S
KENANSVILLE    SUNNY     45  32  61 CALM      30.53F
NEW BERN       SUNNY     46  39  76 NE5       30.55F
ELIZABETH CITY SUNNY     46  36  68 SE8       30.54F

.........CENTRAL NC.........

CITY           SKY/WX    TMP DP  RH WIND       PRES   REMARKS
RALEIGH DURHAM MOSUNNY   43  32  65 S5        30.51F
ROCKY MOUNT    SUNNY     40  33  76 S3        30.52F
ROANOKE RAPIDS NOT AVBL
FAYETTEVILLE   SUNNY     44  36  73 E5        30.52F
HOFFMAN        PTSUNNY   43  35  73 SE5       30.51S

.........WESTERN NC.........

CITY           SKY/WX    TMP DP  RH WIND       PRES   REMARKS
CHARLOTTE      CLOUDY    45  34  65 S5        30.50S
GREENSBORO     MOSUNNY   43  32  65 SW8       30.49R
HICKORY        NOT AVBL
BOONE          NOT AVBL
ASHEVILLE      NOT AVBL

.....................REST OF SOUTH CAROLINA.....................

.........EASTERN SC.........

CITY           SKY/WX    TMP DP  RH WIND       PRES   REMARKS
CHARLESTON     SUNNY     56  50  80 NE8       30.48S
BEAUFORT MCAS  MOSUNNY   55  51  86 N7        30.48S
HILTON HEAD    SUNNY     57  54  88 N7        30.48R

.........CENTRAL SC.........

CITY           SKY/WX    TMP DP  RH WIND       PRES   REMARKS
COLUMBIA       CLOUDY    51  39  63 SE6       30.50S
ORANGEBURG     SUNNY     50  43  77 VRB6      30.50S
SUMTER SHAW    PTSUNNY   49  40  72 NE6       30.48F

.........WESTERN SC.........

CITY           SKY/WX    TMP DP  RH WIND       PRES   REMARKS
GREENVILLE     NOT AVBL
ROCK HILL      CLOUDY    46  35  65 CALM      30.50S
ANDERSON       CLOUDY    52  35  52 CALM      30.49R
CLEMSON        NOT AVBL
GREENWOOD      PTSUNNY   48  36  63 VRB3      30.50R


...................COASTAL AND OFFSHORE REPORTS..................

................LOCAL PIERS AND NC RESERVE................


STATION/POSITION TIME  SKY/WX   TEMP    WIND        PRES    VSBY
                                AIR SEA DIR/SP/G
                 (UTC)          (F)     (DEG/KT/KT) (MB)    (MI)
JOHNY MRCER PIER 1248            46 55   30/  9/  9 1032.6F
NC RESRV MASNBRO 1145            41      40/  1     1032.0
OCEAN CREST PIER NOT AVBL
SPRINGMAID  PIER 1248                               1032.7R


................COASTAL AND OFFSHORE BUOYS................


STATION/POSITION TIME  SKY/WX   TEMP    WIND        PRES    VSBY
                                AIR SEA DIR/SP/G
                 (UTC)          (F)     (DEG/KT/KT) (MB)    (MI)
DIMNDSHOAL 41025 1250            59 75  160/ 14/ 17 1034.1F
WVE H/P(F/S)=  6/ 9 SWL H/P/D(F/S/D)=  5/ 70/ 9

CAPE LOOKOUT     1200            47      20/  6/  8 1033.3F
ONSLOW BAY 41036 NOT AVBL
ONSLOW BAY 41064 1208            63     160/  8/ 14 1033.4R
ONSLOW BAY 41159 1243               68                N/A
WVE H/P(F/S)=  3/10 SWL H/P/D(F/S/D)=  2/ 90/11

MASNBO INL 41110 1259               56                N/A
WVE H/P(F/S)=  3/ 5

WILM HARBR 41108 1247               56                N/A
WVE H/P(F/S)=  3/ 7

27SE WRITB 41037 1208            63 62  160/  8/ 12 1032.3R
FRYING PAN 41013 1250            65 71  130/ 10/ 16 1033.0R
WVE H/P(F/S)=  4/10 SWL H/P/D(F/S/D)=  3/ 90/10

SUNST NRSH 41024 NOT AVBL
CAPRS NRSH 41029 1208            59      50/ 10/ 14 1031.7R
EDISTO     41004 1150            66 71   90/ 14/ 16 1031.2
WVE H/P(F/S)=  6/ 7 SWL H/P/D(F/S/D)=  3/ 80/ 7



..........OFFSHORE BUOYS BEYOND 100 NM OFFSHORE...........
.....IN A TRIANGLE---HAT TO BERMUDA TO BAHAMAS TO HAT.....


STATION/POSITION TIME  SKY/WX   TEMP    WIND        PRES    VSBY
                                AIR SEA DIR/SP/G
                 (UTC)          (F)     (DEG/KT/KT) (MB)    (MI)
150E HAT   41001 NOT AVBL
W BERMUDA  41048 1150            59 67   60/ 14/ 17 1033.1
WVE H/P(F/S)=  8/10 SWL H/P/D(F/S/D)=  7/350/10

ATLANTIC S 41049 1150            66 72   40/ 27/ 33 1024.8
WVE H/P(F/S)= 13/ 8

E BAHAMAS  41046 NOT AVBL
NE BAHAMAS 41047 1250            68 72   60/ 23/ 29 1027.2R
WVE H/P(F/S)= 12/ 9 SWL H/P/D(F/S/D)=  5/ 10/11

120E CANVRL41010 NOT AVBL

END



USA.gov is the U.S. government's official web portal to all federal, state and local government web resources and services.